Beaumont / Port Arthur, TX

1:42 PM CST on December 14, 2017 (GMT -0600)
Beaumont Municipal

Weather History for KBMT - March, 2013

Change the Weather History Date:

Wednesday, March 27, 2013

  Actual Average (KBPT) Record (KBPT)
Temperature  
Mean Temperature 51 °F -  
Max Temperature 68 °F 72 °F 85 °F (1905)
Min Temperature 34 °F 54 °F 30 °F (1955)
Degree Days  
Heating Degree Days 14    
Growing Degree Days 1 (Base 50)    
Moisture  
Dew Point 37 °F    
Average Humidity 63    
Maximum Humidity 97    
Minimum Humidity 30    
Precipitation  
Precipitation 0.00 in - - ()
Sea Level Pressure  
Sea Level Pressure 30.33 in    
Wind  
Wind Speed 3 mph (SE)    
Max Wind Speed 14 mph    
Max Gust Speed 20 mph    
Visibility 10 miles    
Events      
Averages and records for this station are not official NWS values.
T = Trace of Precipitation, MM = Missing Value Source: NWS Daily Summary

Daily Weather History Graph

Daily Weather History Graph

Search for Another Location

Airport or City:

Trip Planner

Search our weather history database for the weather conditions in past years. The results will help you decide how hot, cold, wet, or windy it might be!

Date:

Astronomy

Mar. 27, 2013 Rise Set
Actual Time 7:11 AM CDT 7:32 PM CDT
Civil Twilight 6:47 AM CDT 7:56 PM CDT
Nautical Twilight 6:19 AM CDT 8:24 PM CDT
Astronomical Twilight 5:51 AM CDT 8:53 PM CDT
Moon 8:11 PM CDT (3/27) 7:06 AM CDT (3/27)
Length of Visible Light 13h 08m
Length of Day
12h 20m
Full, 100% of the Moon is Illuminated
Mar 27
Full
Apr 2
Last Quarter
Apr 10
New
Apr 18
First Quarter
Apr 25
Full

Hourly Weather History & Observations

Time (CDT) Temp. Windchill Dew Point Humidity Pressure Visibility Wind Dir Wind Speed Gust Speed Precip Events Conditions
12:15 AM 37.8 °F - 32.2 °F 80% 30.38 in 10.0 mi Calm Calm - N/A   Clear
12:35 AM 37.4 °F - 31.8 °F 80% 30.37 in 10.0 mi Calm Calm - N/A   Clear
12:55 AM 37.9 °F - 32.0 °F 79% 30.38 in 10.0 mi Calm Calm - N/A   Clear
1:15 AM 35.8 °F - 30.9 °F 82% 30.37 in 10.0 mi Calm Calm - N/A   Clear
1:35 AM 36.7 °F - 31.5 °F 81% 30.36 in 10.0 mi Calm Calm - N/A   Clear
1:55 AM 36.5 °F - 32.0 °F 84% 30.36 in 10.0 mi Calm Calm - N/A   Clear
2:15 AM 35.6 °F - 31.8 °F 86% 30.36 in 10.0 mi Calm Calm - N/A   Clear
2:35 AM 36.3 °F - 32.5 °F 86% 30.36 in 10.0 mi Calm Calm - N/A   Clear
2:55 AM 35.6 °F - 32.9 °F 90% 30.35 in 10.0 mi Calm Calm - N/A   Clear
3:15 AM 36.1 °F - 34.2 °F 93% 30.34 in 10.0 mi Calm Calm - N/A   Clear
3:35 AM 35.4 °F - 33.8 °F 94% 30.34 in 10.0 mi Calm Calm - N/A   Clear
4:15 AM 34.5 °F - 33.1 °F 94% 30.34 in 10.0 mi Calm Calm - N/A   Clear
4:35 AM 35.2 °F - 33.3 °F 92% 30.34 in 10.0 mi Calm Calm - N/A   Clear
4:55 AM 35.8 °F - 33.3 °F 91% 30.33 in 10.0 mi Calm Calm - N/A   Clear
5:15 AM 36.3 °F - 32.0 °F 84% 30.34 in 10.0 mi Calm Calm - N/A   Clear
5:35 AM 35.1 °F - 32.4 °F 90% 30.34 in 10.0 mi Calm Calm - N/A   Clear
5:55 AM 34.7 °F - 32.5 °F 92% 30.34 in 10.0 mi Calm Calm - N/A   Clear
6:15 AM 34.2 °F - 32.0 °F 92% 30.35 in 10.0 mi Calm Calm - N/A   Clear
6:35 AM 35.1 °F - 32.0 °F 89% 30.35 in 10.0 mi Calm Calm - N/A   Clear
6:55 AM 35.2 °F - 33.1 °F 92% 30.36 in 10.0 mi Calm Calm - N/A   Clear
7:15 AM 34.5 °F - 32.9 °F 94% 30.37 in 10.0 mi Calm Calm - N/A   Clear
7:35 AM 34.0 °F - 33.3 °F 97% 30.38 in 10.0 mi Calm Calm - N/A   Clear
7:55 AM 35.4 °F - 34.3 °F 96% 30.39 in 10.0 mi Calm Calm - N/A   Clear
8:15 AM 44.8 °F 41.6 °F 40.1 °F 84% 30.39 in 10.0 mi East 5.8 mph - N/A   Clear
8:35 AM 49.3 °F - 40.1 °F 71% 30.40 in 10.0 mi East 5.8 mph - N/A   Clear
8:55 AM 51.8 °F - 41.2 °F 67% 30.40 in 10.0 mi East 6.9 mph - N/A   Clear
9:15 AM 53.8 °F - 41.0 °F 62% 30.40 in 10.0 mi ESE 8.1 mph - N/A   Clear
9:55 AM 58.1 °F - 40.1 °F 51% 30.41 in 10.0 mi SE 9.2 mph - N/A   Clear
10:15 AM 59.7 °F - 38.8 °F 46% 30.40 in 10.0 mi ESE 12.7 mph 17.3 mph N/A   Clear
10:35 AM 60.8 °F - 36.7 °F 41% 30.41 in 10.0 mi SE 11.5 mph 16.1 mph N/A   Clear
10:55 AM 62.1 °F - 36.5 °F 39% 30.40 in 10.0 mi ESE 6.9 mph 16.1 mph N/A   Clear
11:15 AM 62.8 °F - 33.8 °F 34% 30.41 in 10.0 mi SSE 8.1 mph - N/A   Clear
11:35 AM 64.0 °F - 34.2 °F 33% 30.40 in 10.0 mi ESE 6.9 mph - N/A   Clear
11:55 AM 64.2 °F - 34.3 °F 33% 30.39 in 10.0 mi ESE 12.7 mph 18.4 mph N/A   Clear
12:15 PM 65.1 °F - 34.7 °F 32% 30.39 in 10.0 mi SE 8.1 mph - N/A   Clear
12:35 PM 66.2 °F - 35.4 °F 32% 30.38 in 10.0 mi SE 6.9 mph - N/A   Clear
12:55 PM 65.7 °F - 35.6 °F 33% 30.37 in 10.0 mi ESE 8.1 mph - N/A   Clear
1:15 PM 66.2 °F - 34.9 °F 31% 30.36 in 10.0 mi South 4.6 mph - N/A   Clear
1:35 PM 67.6 °F - 36.1 °F 31% 30.35 in 10.0 mi East 9.2 mph - N/A   Clear
1:55 PM 68.0 °F - 36.9 °F 32% 30.34 in 10.0 mi SE 9.2 mph - N/A   Clear
2:15 PM 67.1 °F - 35.2 °F 31% 30.33 in 10.0 mi SSE 10.4 mph - N/A   Clear
2:35 PM 67.5 °F - 35.8 °F 31% 30.32 in 10.0 mi SE 9.2 mph 16.1 mph N/A   Clear
2:55 PM 68.2 °F - 36.3 °F 31% 30.31 in 10.0 mi SSE 8.1 mph - N/A   Clear
3:15 PM 67.6 °F - 35.6 °F 31% 30.31 in 10.0 mi SE 9.2 mph 16.1 mph N/A   Clear
3:35 PM 67.3 °F - 35.2 °F 31% 30.31 in 10.0 mi SSE 8.1 mph - N/A   Clear
3:55 PM 67.5 °F - 34.9 °F 30% 30.30 in 10.0 mi SSE 9.2 mph - N/A   Clear
4:15 PM 67.5 °F - 35.2 °F 30% 30.29 in 10.0 mi South 13.8 mph 19.6 mph N/A   Clear
4:35 PM 66.9 °F - 36.1 °F 32% 30.28 in 10.0 mi SSE 9.2 mph - N/A   Clear
4:55 PM 66.4 °F - 36.0 °F 33% 30.27 in 10.0 mi SE 10.4 mph - N/A   Clear
5:15 PM 65.7 °F - 36.0 °F 33% 30.26 in 10.0 mi SSE 8.1 mph - N/A   Clear
5:35 PM 64.9 °F - 35.6 °F 34% 30.25 in 10.0 mi SE 8.1 mph - N/A   Clear
5:55 PM 63.7 °F - 36.5 °F 36% 30.25 in 10.0 mi SSE 5.8 mph - N/A   Clear
6:15 PM 63.0 °F - 37.4 °F 39% 30.26 in 10.0 mi SE 9.2 mph - N/A   Clear
6:35 PM 61.7 °F - 38.5 °F 42% 30.26 in 10.0 mi South 9.2 mph - N/A   Clear
6:55 PM 59.9 °F - 41.0 °F 50% 30.26 in 10.0 mi SSE 10.4 mph - N/A   Clear
7:15 PM 57.9 °F - 42.1 °F 56% 30.26 in 10.0 mi SSE 8.1 mph - N/A   Clear
7:35 PM 56.5 °F - 42.6 °F 60% 30.26 in 10.0 mi SSE 6.9 mph - N/A   Clear
7:55 PM 55.0 °F - 42.4 °F 63% 30.26 in 10.0 mi SSE 4.6 mph - N/A   Clear
8:15 PM 53.6 °F - 42.8 °F 67% 30.27 in 10.0 mi South 3.5 mph - N/A   Clear
8:35 PM 52.2 °F - 42.8 °F 70% 30.28 in 10.0 mi Calm Calm - N/A   Clear
8:55 PM 51.6 °F - 42.8 °F 72% 30.28 in 10.0 mi Calm Calm - N/A   Clear
9:15 PM 51.3 °F - 43.0 °F 73% 30.29 in 10.0 mi Calm Calm - N/A   Clear
9:35 PM 50.9 °F - 43.0 °F 74% 30.29 in 10.0 mi Calm Calm - N/A   Clear
9:55 PM 50.2 °F - 43.3 °F 77% 30.29 in 10.0 mi SSE 3.5 mph - N/A   Clear
10:15 PM 50.2 °F - 43.9 °F 79% 30.30 in 10.0 mi Calm Calm - N/A   Clear
10:35 PM 49.8 °F - 43.9 °F 80% 30.30 in 10.0 mi SE 3.5 mph - N/A   Clear
10:55 PM 49.3 °F - 44.2 °F 83% 30.30 in 10.0 mi SE 3.5 mph - N/A   Mostly Cloudy
11:15 PM 50.9 °F - 45.1 °F 81% 30.29 in 10.0 mi SE 5.8 mph - N/A   Overcast
11:35 PM 51.1 °F - 45.1 °F 80% 30.29 in 10.0 mi SE 3.5 mph - N/A   Overcast
11:55 PM 50.4 °F - 45.3 °F 83% 30.28 in 10.0 mi ESE 3.5 mph - N/A   Mostly Cloudy